Regional Weather Roundup
Issued by NWS

Home | Current Version | Previous Version | Text Only | Print | Product List | Glossary On
Versions: 1 2 3 4 5 6 7 8 9 10 11 12 13 14 15 16 17 18 19 20 21 22 23 24 25 26 27 28 29 30 31 32 33 34 35 36 37 38 39 40 41 42 43 44 45 46 47 48 49 50
000
ASUS43 KDMX 050507
RWRIA

WEATHER ROUNDUP FOR IOWA
NATIONAL WEATHER SERVICE DES MOINES IA
1100 PM CST WED MAR 04 2015

NOTE: "FAIR" INDICATES FEW OR NO CLOUDS BELOW 12,000 FEET WITH NO
SIGNIFICANT WEATHER AND/OR OBSTRUCTIONS TO VISIBILITY.

* - THESE STATIONS ARE NOT NWS STATIONS...THUS NOT UNDER NWS
QUALITY CONTROL.  THEY ALSO DO NOT REPORT WEATHER SUCH
AS PRECIPITATION OR FOG.

IAZ001>003-012>014-020>022-031>034-043>046-050600-
   NORTHWEST IOWA

CITY           SKY/WX    TMP DP  RH WIND       PRES   REMARKS
CARROLL *      CLEAR      5  -6  61 N9        30.46R WCI  -9
CHEROKEE *     CLEAR      1  -8  66 NW5       30.45S WCI  -8
DENISON *      CLEAR      3  -6  66 N6        30.44R WCI  -8
LE MARS *      CLEAR      0  -6  78 N3        30.47S
ORANGE CITY *  CLEAR      3  -6  66 N5        30.43S WCI  -6
SHELDON *      CLEAR     -2  -9  71 NW5       30.43S WCI -12
SIOUX CITY     CLEAR      6  -5  60 N8        30.48R WCI  -7
SPENCER        CLEAR     -2  -9  72 NW5       30.43S WCI -12
STORM LAKE *   CLEAR      0  -9  65 NW10      30.42R WCI -17
$$

IAZ055>058-069>071-079>083-090>094-050600-
   SOUTHWEST IOWA

CITY           SKY/WX    TMP DP  RH WIND       PRES   REMARKS
ATLANTIC *     CLEAR      7  -2  66 N6        30.47R WCI  -3
AUDUBON *      CLEAR      5  -4  66 N7        30.45R WCI  -7
CLARINDA *     CLEAR     12   1  62 N10       30.49R WCI  -1
COUNCIL BLFS * CLEAR      9  -4  56 N8        30.46R WCI  -4
CRESTON *      CLEAR     10  -4  52 N14G20    30.44R WCI  -5
HARLAN  *      CLEAR      7  -4  61 N6        30.50R WCI  -3
LAMONI         CLEAR     13   1  59 N10       30.42R WCI   0
RED OAK *      CLEAR      9   1  72 N7        30.48S WCI  -3
SHENANDOAH *   CLEAR     12   0  57 N13       30.49S WCI  -3
$$

IAZ047>049-059>061-072>074-084-050600-
   CENTRAL IOWA

CITY           SKY/WX    TMP DP  RH WIND       PRES   REMARKS
AMES           CLOUDY     9   2  73 N12       30.46R WCI  -6
ANKENY *       FLURRIES  12   5  73 NW10      30.45F WCI  -1
CHARITON *     PTCLDY    14   3  62 N9        30.43S WCI   2
DES MOINES     PTCLDY    12   4  70 N10       30.45R WCI  -1
GRINNELL*      CLOUDY    10   3  72 N14       30.44R WCI  -5
KNOXVILLE *    LGT SNOW  14   9  79 N5        30.43R WCI   6
MARSHALLTOWN   CLOUDY     3  -3  76 N7        30.44R WCI  -9
PELLA *        LGT SNOW  14  11  91 N7        30.46R WCI   3
PERRY *          N/A      9   1  72 NW12      30.47R WCI  -6
$$

IAZ004>006-015-016-023>025-035-036-050600-
   NORTH CENTRAL IOWA

CITY           SKY/WX    TMP DP  RH WIND       PRES   REMARKS
ALGONA *       CLEAR      1 N/A N/A N8G14     30.43R WCI -12
CLARION *      CLEAR      1  -4  78 N10       30.43R WCI -14
ESTHERVILLE    CLEAR     -1  -8  72 NW10      30.41F WCI -17
FORT DODGE *   CLEAR      3  -6  66 NW6       30.44R WCI  -8
MASON CITY     CLEAR     -2  -9  72 NW10      30.41F WCI -19
FOREST CITY *  CLEAR      1  -8  66 NW7       30.40S WCI -11
IOWA FALLS *     N/A      3  -4  72 NW10      30.44R WCI -12
$$

IAZ007>011-017>019-026>030-037>042-050>054-066-050600-
   NORTHEAST IOWA

CITY           SKY/WX    TMP DP  RH WIND       PRES   REMARKS
CEDAR RAPIDS   CLEAR      4  -1  80 NW6       30.42R WCI  -7
CHARLES CITY * CLEAR      1  -8  66 NW15      30.39F WCI -18
CLINTON *      CLEAR      1  -6  71 NW7       30.43R WCI -11
DECORAH *      CLEAR      1  -9  60 NW12      30.36F WCI -15
DUBUQUE        CLEAR      4  -4  69 NW10      30.38R WCI -11
MONTICELLO *   CLEAR      0  -6  78 CALM      30.42R
OELWEIN *      CLEAR      1  -8  66 NW10      30.41R WCI -14
WATERLOO         N/A      2  -4  76 NW7       30.44R WCI -11
$$

IAZ064-065-067-068-078-050600-
   EAST CENTRAL IOWA

CITY           SKY/WX    TMP DP  RH WIND       PRES   REMARKS
DAVENPORT      PTCLDY     8  -2  63 NW8       30.42R WCI  -4
IOWA CITY      CLOUDY    12   2  64 NW10      30.46R WCI  -1
MT. PLEASANT * CLOUDY    14   7  73 N9        30.43S WCI   2
MUSCATINE *    CLOUDY    16   3  57 N13       30.45R WCI   2
QUAD CITIES    CLOUDY    13   0  56 N9        30.42R WCI   1
$$

IAZ062-063-075>077-085>089-095>099-050600-
   SOUTHEAST IOWA

CITY           SKY/WX    TMP DP  RH WIND       PRES   REMARKS
BURLINGTON     CLOUDY    16   5  62 N12       30.41R WCI   3
FAIRFIELD *    CLOUDY    14   5  67 N8        30.43S WCI   3
FORT MADISON * CLOUDY    16   7  67 N7        30.41F WCI   6
KEOKUK *       CLOUDY    18   9  68 N5        30.40S WCI  11
OSKALOOSA *    CLOUDY    14   7  73 N10       30.43F WCI   1
CENTERVILLE *  CLEAR     14   7  73 NW8       30.42S WCI   3
OTTUMWA        CLOUDY    14   5  67 N12       30.42S WCI   0
WASHINGTON *   CLOUDY    16   9  73 N12       30.43R WCI   3
$$

ABBREVIATIONS USED IN REMARKS
   TC - TEMPERATURES IN CELSIUS
  WCI - WIND CHILL INDEX
   HX - HEAT INDEX
  VSB - VISIBILITY
$$




USA.gov is the U.S. government's official web portal to all federal, state and local government web resources and services.